Track OPS 4682 (SNAPSHOT) now! 10-day predictions OPS 4682 (SNAPSHOT) is classified as:
1 1314U 65027A 26024.42487848 .00000048 00000-0 15306-3 0 9998 2 1314 90.2389 3.0871 0028937 307.9596 184.6790 12.91802288612464